Newton, KS

1:09 PM CST on December 07, 2019 (GMT -0600)
Newton City County

Weather History for KEWK - October, 2019

Change the Weather History Date:

Monday, October 7, 2019

  Actual Average Record
Temperature  
Mean Temperature 57 °F -  
Max Temperature 70 °F 68 °F 89 °F (2007)
Min Temperature 44 °F 48 °F 28 °F (2012)
Degree Days  
Heating Degree Days 8    
Growing Degree Days 7 (Base 50)    
Moisture  
Dew Point 42 °F    
Average Humidity 63    
Maximum Humidity 89    
Minimum Humidity 32    
Precipitation  
Precipitation 0.00 in - - ()
Sea Level Pressure  
Sea Level Pressure 30.27 in    
Wind  
Wind Speed 6 mph (West)    
Max Wind Speed 10 mph    
Max Gust Speed -    
Visibility 10 miles    
Events      
Averages and records for this station are not official NWS values.
T = Trace of Precipitation, MM = Missing Value Source: NWS Daily Summary

Daily Weather History Graph

Daily Weather History Graph

Search for Another Location

Airport or City:

Astronomy

Oct. 07, 2019 Rise Set
Actual Time 7:30 AM CDT 7:03 PM CDT
Civil Twilight 7:03 AM CDT 7:29 PM CDT
Nautical Twilight 6:33 AM CDT 8:00 PM CDT
Astronomical Twilight 6:02 AM CDT 8:30 PM CDT
Moon 4:19 PM CDT 1:31 AM CDT
Length of Visible Light 12h 25m
Length of Day
11h 33m
Waxing Gibbous, 69% of the Moon is Illuminated
Oct 7
Waxing Gibbous
Oct 13
Full
Oct 21
Last Quarter
Oct 27
New
Nov 4
First Quarter

Hourly Weather History & Observations

Time (CDT) Temp. Windchill Dew Point Humidity Pressure Visibility Wind Dir Wind Speed Gust Speed Precip Events Conditions
12:56 AM 48.0 °F - 44.1 °F 86% 30.32 in 10.0 mi NW 5.8 mph - N/A   Clear
1:56 AM 46.9 °F - 43.0 °F 86% 30.31 in 10.0 mi WNW 5.8 mph - N/A   Clear
2:56 AM 46.9 °F - 43.0 °F 86% 30.30 in 10.0 mi NW 5.8 mph - N/A   Clear
3:56 AM 46.0 °F 43.1 °F 42.1 °F 86% 30.29 in 10.0 mi NW 5.8 mph - N/A   Clear
4:56 AM 44.1 °F 41.5 °F 41.0 °F 89% 30.30 in 10.0 mi NW 4.6 mph - N/A   Clear
5:56 AM 44.1 °F 41.5 °F 41.0 °F 89% 30.30 in 10.0 mi NW 4.6 mph - N/A   Clear
6:56 AM 44.1 °F 40.8 °F 41.0 °F 89% 30.32 in 10.0 mi NW 5.8 mph - N/A   Clear
7:56 AM 45.0 °F 41.8 °F 41.0 °F 86% 30.33 in 10.0 mi NW 5.8 mph - N/A   Clear
8:56 AM 50.0 °F - 45.0 °F 83% 30.34 in 10.0 mi NW 5.8 mph - N/A   Clear
9:56 AM 55.9 °F - 46.9 °F 72% 30.35 in 10.0 mi NW 4.6 mph - N/A   Clear
10:56 AM 62.1 °F - 46.9 °F 58% 30.35 in 10.0 mi NW 6.9 mph - N/A   Clear
11:56 AM 66.0 °F - 43.0 °F 43% 30.34 in 10.0 mi Calm Calm - N/A   Clear
12:56 PM 68.0 °F - 39.0 °F 35% 30.31 in 10.0 mi WNW 5.8 mph - N/A   Clear
1:56 PM 69.1 °F - 37.9 °F 32% 30.28 in 10.0 mi South 8.1 mph - N/A   Clear
2:56 PM 70.0 °F - 39.0 °F 32% 30.25 in 10.0 mi SW 8.1 mph - N/A   Clear
3:56 PM 69.1 °F - 39.0 °F 33% 30.23 in 10.0 mi Variable 3.5 mph - N/A   Clear
4:56 PM 70.0 °F - 39.9 °F 33% 30.21 in 10.0 mi SSE 10.4 mph - N/A   Clear
5:56 PM 66.9 °F - 37.0 °F 33% 30.19 in 10.0 mi SSE 8.1 mph - N/A   Clear
6:56 PM 61.0 °F - 39.9 °F 46% 30.19 in 10.0 mi SSE 6.9 mph - N/A   Clear
7:56 PM 55.9 °F - 41.0 °F 57% 30.19 in 10.0 mi South 5.8 mph - N/A   Clear
8:56 PM 55.0 °F - 41.0 °F 59% 30.18 in 10.0 mi South 6.9 mph - N/A   Clear
9:56 PM 52.0 °F - 41.0 °F 66% 30.18 in 10.0 mi South 8.1 mph - N/A   Clear
10:56 PM 48.9 °F - 42.1 °F 77% 30.18 in 10.0 mi SSE 8.1 mph - N/A   Clear